Time,TemperatureF,DewpointF,PressureIn,WindDirection,WindDirectionDegrees,WindSpeedMPH,WindSpeedGustMPH,Humidity,HourlyPrecipIn,Conditions,Clouds,dailyrainin,SoftwareType,DateUTC
2013-04-13 00:02:00,30.0,25.0,-100.00,WNW,290,11.0,18.0,80,0.00,,,-99.99,,2013-04-13 05:02:00,
2013-04-13 00:12:00,30.0,24.0,-100.00,WNW,300,10.0,18.0,80,0.00,,,-99.99,,2013-04-13 05:12:00,
2013-04-13 00:22:00,29.0,24.0,-100.00,NW,310,10.0,15.0,80,0.00,,,-99.99,,2013-04-13 05:22:00,
2013-04-13 00:32:00,29.0,24.0,-100.00,WNW,295,12.0,14.0,80,0.00,,,-99.99,,2013-04-13 05:32:00,
2013-04-13 00:42:00,29.0,24.0,-100.00,WNW,295,12.0,14.0,80,0.00,,,-99.99,,2013-04-13 05:42:00,
2013-04-13 00:52:00,29.0,24.0,-100.00,WNW,295,10.0,17.0,80,0.00,,,-99.99,,2013-04-13 05:52:00,
2013-04-13 01:02:00,29.0,24.0,-100.00,WNW,295,10.0,17.0,80,0.00,,,-99.99,,2013-04-13 06:02:00,
2013-04-13 01:12:00,29.0,23.0,-100.00,WNW,300,12.0,17.0,80,0.00,,,-99.99,,2013-04-13 06:12:00,
2013-04-13 01:23:00,28.0,23.0,-100.00,WNW,285,9.0,15.0,81,0.00,,,-99.99,,2013-04-13 06:23:00,
2013-04-13 01:34:00,28.0,24.0,-100.00,WNW,295,12.0,16.0,82,0.00,,,-99.99,,2013-04-13 06:34:00,
2013-04-13 01:45:00,28.0,24.0,-100.00,WNW,295,12.0,16.0,82,0.00,,,-99.99,,2013-04-13 06:45:00,
2013-04-13 01:53:00,28.0,24.0,-100.00,West,280,9.0,14.0,83,0.00,,,-99.99,,2013-04-13 06:53:00,
2013-04-13 02:05:00,28.0,24.0,-100.00,West,280,9.0,14.0,83,0.00,,,-99.99,,2013-04-13 07:05:00,
2013-04-13 02:14:00,28.0,24.0,-100.00,WNW,285,9.0,14.0,83,0.00,,,-99.99,,2013-04-13 07:14:00,
2013-04-13 02:23:00,28.0,24.0,-100.00,WNW,285,11.0,15.0,83,0.00,,,-99.99,,2013-04-13 07:23:00,
2013-04-13 02:44:00,28.0,24.0,-100.00,WNW,285,11.0,14.0,83,0.00,,,-99.99,,2013-04-13 07:44:00,
2013-04-13 02:54:00,28.0,23.0,-100.00,WNW,285,11.0,16.0,83,0.00,,,-99.99,,2013-04-13 07:54:00,
2013-04-13 03:06:00,28.0,23.0,-100.00,WNW,285,11.0,16.0,83,0.00,,,-99.99,,2013-04-13 08:06:00,
2013-04-13 03:14:00,28.0,24.0,-100.00,West,280,11.0,15.0,84,0.00,,,-99.99,,2013-04-13 08:14:00,
2013-04-13 03:24:00,27.0,24.0,-100.00,WNW,285,11.0,17.0,84,0.00,,,-99.99,,2013-04-13 08:24:00,
2013-04-13 03:34:00,27.0,23.0,-100.00,WNW,285,10.0,16.0,85,0.00,,,-99.99,,2013-04-13 08:34:00,
2013-04-13 03:44:00,27.0,23.0,-100.00,WNW,285,10.0,16.0,85,0.00,,,-99.99,,2013-04-13 08:44:00,
2013-04-13 03:53:00,27.0,23.0,-100.00,WNW,285,11.0,14.0,85,0.00,,,-99.99,,2013-04-13 08:53:00,
2013-04-13 04:04:00,27.0,23.0,-100.00,WNW,285,11.0,14.0,85,0.00,,,-99.99,,2013-04-13 09:04:00,
2013-04-13 04:14:00,27.0,23.0,-100.00,West,280,10.0,15.0,85,0.00,,,-99.99,,2013-04-13 09:14:00,
2013-04-13 04:24:00,27.0,23.0,-100.00,West,280,11.0,14.0,85,0.00,,,-99.99,,2013-04-13 09:24:00,
2013-04-13 04:35:00,26.0,23.0,-100.00,West,280,10.0,13.0,86,0.00,,,-99.99,,2013-04-13 09:35:00,
2013-04-13 04:47:00,26.0,23.0,-100.00,West,280,10.0,13.0,86,0.00,,,-99.99,,2013-04-13 09:47:00,
2013-04-13 05:05:00,26.0,23.0,-100.00,West,270,11.0,14.0,87,0.00,,,-99.99,,2013-04-13 10:05:00,
2013-04-13 05:15:00,26.0,23.0,-100.00,West,280,12.0,15.0,87,0.00,,,-99.99,,2013-04-13 10:15:00,
2013-04-13 05:24:00,26.0,23.0,-100.00,West,275,12.0,16.0,87,0.00,,,-99.99,,2013-04-13 10:24:00,
2013-04-13 05:36:00,26.0,23.0,-100.00,WNW,290,10.0,13.0,87,0.00,,,-99.99,,2013-04-13 10:36:00,
2013-04-13 05:45:00,26.0,23.0,-100.00,WNW,290,10.0,13.0,87,0.00,,,-99.99,,2013-04-13 10:45:00,
2013-04-13 05:53:00,26.0,23.0,-100.00,WNW,295,10.0,14.0,87,0.00,,,-99.99,,2013-04-13 10:53:00,
2013-04-13 06:05:00,26.0,23.0,-100.00,WNW,295,10.0,14.0,87,0.00,,,-99.99,,2013-04-13 11:05:00,
2013-04-13 06:13:00,27.0,24.0,-100.00,WNW,300,12.0,16.0,87,0.00,,,-99.99,,2013-04-13 11:13:00,
2013-04-13 06:23:00,26.0,23.0,-100.00,NW,305,12.0,17.0,87,0.00,,,-99.99,,2013-04-13 11:23:00,
2013-04-13 06:34:00,26.0,23.0,-100.00,NW,305,10.0,19.0,88,0.00,,,-99.99,,2013-04-13 11:34:00,
2013-04-13 06:44:00,26.0,23.0,-100.00,NW,305,10.0,19.0,88,0.00,,,-99.99,,2013-04-13 11:44:00,
2013-04-13 06:53:00,26.0,24.0,-100.00,NW,305,10.0,17.0,89,0.00,,,-99.99,,2013-04-13 11:53:00,
2013-04-13 07:08:00,26.0,24.0,-100.00,NW,305,10.0,17.0,89,0.00,,,-99.99,,2013-04-13 12:08:00,
2013-04-13 07:14:00,26.0,24.0,-100.00,NW,305,7.0,18.0,89,0.00,,,-99.99,,2013-04-13 12:14:00,
2013-04-13 07:24:00,26.0,24.0,-100.00,NW,310,9.0,12.0,89,0.00,,,-99.99,,2013-04-13 12:24:00,
2013-04-13 07:35:00,26.0,24.0,-100.00,West,280,9.0,15.0,89,0.00,,,-99.99,,2013-04-13 12:35:00,
2013-04-13 07:45:00,26.0,24.0,-100.00,West,280,9.0,15.0,89,0.00,,,-99.99,,2013-04-13 12:45:00,
2013-04-13 07:53:00,26.0,24.0,-100.00,WNW,290,11.0,14.0,89,0.00,,,-99.99,,2013-04-13 12:53:00,
2013-04-13 08:05:00,26.0,24.0,-100.00,WNW,290,11.0,14.0,89,0.00,,,-99.99,,2013-04-13 13:05:00,
2013-04-13 08:14:00,26.0,23.0,-100.00,NW,325,9.0,12.0,90,0.00,,,-99.99,,2013-04-13 13:14:00,
2013-04-13 08:24:00,26.0,23.0,-100.00,NW,305,10.0,14.0,90,0.00,,,-99.99,,2013-04-13 13:24:00,
2013-04-13 08:34:00,26.0,23.0,-100.00,WNW,300,7.0,16.0,90,0.00,,,-99.99,,2013-04-13 13:34:00,
2013-04-13 08:45:00,26.0,23.0,-100.00,WNW,300,7.0,16.0,90,0.00,,,-99.99,,2013-04-13 13:45:00,
2013-04-13 08:53:00,26.0,23.0,-100.00,NW,305,10.0,14.0,89,0.00,,,-99.99,,2013-04-13 13:53:00,
2013-04-13 09:04:00,26.0,23.0,-100.00,NW,305,10.0,14.0,89,0.00,,,-99.99,,2013-04-13 14:04:00,
2013-04-13 09:13:00,26.0,24.0,-100.00,NW,320,8.0,12.0,88,0.00,,,-99.99,,2013-04-13 14:13:00,
2013-04-13 09:23:00,26.0,24.0,-100.00,NW,320,8.0,12.0,88,0.00,,,-99.99,,2013-04-13 14:23:00,
2013-04-13 09:36:00,28.0,24.0,-100.00,WNW,300,12.0,17.0,85,0.00,,,-99.99,,2013-04-13 14:36:00,
2013-04-13 09:45:00,28.0,24.0,-100.00,WNW,300,12.0,17.0,85,0.00,,,-99.99,,2013-04-13 14:45:00,
2013-04-13 09:54:00,28.0,24.0,-100.00,WNW,300,10.0,16.0,84,0.00,,,-99.99,,2013-04-13 14:54:00,
2013-04-13 10:04:00,28.0,24.0,-100.00,WNW,300,10.0,16.0,84,0.00,,,-99.99,,2013-04-13 15:04:00,
2013-04-13 10:14:00,28.0,24.0,-100.00,NW,305,12.0,16.0,83,0.00,,,-99.99,,2013-04-13 15:14:00,
2013-04-13 10:27:00,29.0,24.0,-100.00,West,270,13.0,16.0,83,0.00,,,-99.99,,2013-04-13 15:27:00,
2013-04-13 10:35:00,29.0,25.0,-100.00,West,260,9.0,14.0,83,0.00,,,-99.99,,2013-04-13 15:35:00,
2013-04-13 10:43:00,29.0,25.0,-100.00,West,260,9.0,14.0,83,0.00,,,-99.99,,2013-04-13 15:43:00,
2013-04-13 10:54:00,30.0,25.0,-100.00,West,270,11.0,15.0,82,0.00,,,-99.99,,2013-04-13 15:54:00,
2013-04-13 11:05:00,30.0,25.0,-100.00,West,270,11.0,15.0,82,0.00,,,-99.99,,2013-04-13 16:05:00,
2013-04-13 11:14:00,30.0,25.0,-100.00,West,275,11.0,15.0,81,0.00,,,-99.99,,2013-04-13 16:14:00,
2013-04-13 11:24:00,30.0,25.0,-100.00,NW,310,9.0,15.0,81,0.00,,,-99.99,,2013-04-13 16:24:00,
2013-04-13 11:35:00,31.0,25.0,-100.00,NW,315,11.0,15.0,78,0.00,,,-99.99,,2013-04-13 16:35:00,
2013-04-13 11:44:00,31.0,25.0,-100.00,NW,315,11.0,15.0,78,0.00,,,-99.99,,2013-04-13 16:44:00,
2013-04-13 11:53:00,32.0,25.0,-100.00,NW,320,10.0,16.0,77,0.00,,,-99.99,,2013-04-13 16:53:00,
2013-04-13 12:05:00,32.0,25.0,-100.00,NW,320,10.0,16.0,77,0.00,,,-99.99,,2013-04-13 17:05:00,
2013-04-13 12:20:00,33.0,26.0,-100.00,NW,305,7.0,13.0,75,0.00,,,-99.99,,2013-04-13 17:20:00,
2013-04-13 12:43:00,35.0,26.0,-100.00,WNW,300,7.0,12.0,70,0.00,,,-99.99,,2013-04-13 17:43:00,
2013-04-13 12:57:00,35.0,26.0,-100.00,NW,315,6.0,9.0,68,0.00,,,-99.99,,2013-04-13 17:57:00,
2013-04-13 13:05:00,35.0,26.0,-100.00,NW,315,6.0,9.0,68,0.00,,,-99.99,,2013-04-13 18:05:00,
2013-04-13 13:14:00,37.0,28.0,-100.00,North,0,2.0,8.0,68,0.00,,,-99.99,,2013-04-13 18:14:00,
2013-04-13 13:24:00,36.0,26.0,-100.00,WNW,300,6.0,9.0,67,0.00,,,-99.99,,2013-04-13 18:24:00,
2013-04-13 13:32:00,36.0,26.0,-100.00,WNW,300,4.0,12.0,67,0.00,,,-99.99,,2013-04-13 18:32:00,
2013-04-13 13:42:00,36.0,26.0,-100.00,WNW,300,4.0,12.0,67,0.00,,,-99.99,,2013-04-13 18:42:00,
2013-04-13 13:52:00,37.0,27.0,-100.00,NNW,335,7.0,11.0,65,0.00,,,-99.99,,2013-04-13 18:52:00,
2013-04-13 14:03:00,37.0,27.0,-100.00,NNW,335,7.0,11.0,65,0.00,,,-99.99,,2013-04-13 19:03:00,
2013-04-13 14:12:00,37.0,26.0,-100.00,West,270,5.0,9.0,65,0.00,,,-99.99,,2013-04-13 19:12:00,
2013-04-13 14:22:00,38.0,27.0,-100.00,NW,305,7.0,9.0,65,0.00,,,-99.99,,2013-04-13 19:22:00,
2013-04-13 14:32:00,38.0,27.0,-100.00,WSW,255,6.0,11.0,63,0.00,,,-99.99,,2013-04-13 19:32:00,
2013-04-13 14:42:00,38.0,27.0,-100.00,WSW,255,6.0,11.0,63,0.00,,,-99.99,,2013-04-13 19:42:00,
2013-04-13 14:52:00,39.0,27.0,-100.00,NW,315,4.0,11.0,63,0.00,,,-99.99,,2013-04-13 19:52:00,
2013-04-13 15:02:00,39.0,27.0,-100.00,NW,315,4.0,11.0,63,0.00,,,-99.99,,2013-04-13 20:02:00,
2013-04-13 15:12:00,39.0,28.0,-100.00,SSW,210,2.0,6.0,63,0.00,,,-99.99,,2013-04-13 20:12:00,
2013-04-13 15:22:00,40.0,27.0,-100.00,NW,320,3.0,8.0,61,0.00,,,-99.99,,2013-04-13 20:22:00,
2013-04-13 15:32:00,41.0,27.0,-100.00,SSW,205,2.0,6.0,58,0.00,,,-99.99,,2013-04-13 20:32:00,
2013-04-13 15:42:00,41.0,27.0,-100.00,SSW,205,2.0,6.0,58,0.00,,,-99.99,,2013-04-13 20:42:00,
2013-04-13 15:52:00,43.0,29.0,-100.00,SSW,200,2.0,8.0,56,0.00,,,-99.99,,2013-04-13 20:52:00,
2013-04-13 16:02:00,43.0,29.0,-100.00,SSW,200,2.0,8.0,56,0.00,,,-99.99,,2013-04-13 21:02:00,
2013-04-13 16:12:00,44.0,29.0,-100.00,South,175,1.0,6.0,55,0.00,,,-99.99,,2013-04-13 21:12:00,
2013-04-13 16:22:00,42.0,27.0,-100.00,ENE,65,2.0,4.0,53,0.00,,,-99.99,,2013-04-13 21:22:00,
2013-04-13 16:32:00,42.0,27.0,-100.00,East,85,4.0,6.0,55,0.00,,,-99.99,,2013-04-13 21:32:00,
2013-04-13 16:43:00,42.0,27.0,-100.00,East,85,4.0,6.0,55,0.00,,,-99.99,,2013-04-13 21:43:00,
2013-04-13 16:52:00,42.0,27.0,-100.00,East,85,0.0,4.0,55,0.00,,,-99.99,,2013-04-13 21:52:00,
2013-04-13 17:03:00,42.0,27.0,-100.00,East,85,0.0,4.0,55,0.00,,,-99.99,,2013-04-13 22:03:00,
2013-04-13 17:12:00,43.0,28.0,-100.00,SW,215,2.0,3.0,54,0.00,,,-99.99,,2013-04-13 22:12:00,
2013-04-13 17:22:00,42.0,27.0,-100.00,SE,130,4.0,6.0,54,0.00,,,-99.99,,2013-04-13 22:22:00,
2013-04-13 17:33:00,41.0,26.0,-100.00,ENE,70,4.0,7.0,55,0.00,,,-99.99,,2013-04-13 22:33:00,
2013-04-13 17:42:00,41.0,26.0,-100.00,ENE,70,4.0,7.0,55,0.00,,,-99.99,,2013-04-13 22:42:00,
2013-04-13 17:52:00,41.0,27.0,-100.00,ENE,60,4.0,9.0,57,0.00,,,-99.99,,2013-04-13 22:52:00,
2013-04-13 18:02:00,41.0,27.0,-100.00,ENE,60,4.0,9.0,57,0.00,,,-99.99,,2013-04-13 23:02:00,
2013-04-13 18:12:00,40.0,27.0,-100.00,NE,55,5.0,9.0,59,0.00,,,-99.99,,2013-04-13 23:12:00,
2013-04-13 18:22:00,40.0,27.0,-100.00,NE,55,4.0,7.0,59,0.00,,,-99.99,,2013-04-13 23:22:00,
2013-04-13 18:32:00,40.0,27.0,-100.00,NE,45,6.0,9.0,61,0.00,,,-99.99,,2013-04-13 23:32:00,
2013-04-13 18:41:00,40.0,27.0,-100.00,NE,45,6.0,9.0,61,0.00,,,-99.99,,2013-04-13 23:41:00,
2013-04-13 18:52:00,39.0,27.0,-100.00,ENE,60,5.0,9.0,62,0.00,,,-99.99,,2013-04-13 23:52:00,
2013-04-13 19:02:00,39.0,27.0,-100.00,ENE,60,5.0,9.0,62,0.00,,,-99.99,,2013-04-14 00:02:00,
2013-04-13 19:12:00,39.0,27.0,-100.00,NE,45,4.0,11.0,62,0.00,,,-99.99,,2013-04-14 00:12:00,
2013-04-13 19:22:00,39.0,28.0,-100.00,NE,45,6.0,9.0,62,0.00,,,-99.99,,2013-04-14 00:22:00,
2013-04-13 19:32:00,39.0,28.0,-100.00,ENE,65,7.0,10.0,63,0.00,,,-99.99,,2013-04-14 00:32:00,
2013-04-13 19:42:00,39.0,28.0,-100.00,ENE,65,7.0,10.0,63,0.00,,,-99.99,,2013-04-14 00:42:00,
2013-04-13 19:52:00,39.0,28.0,-100.00,East,80,6.0,10.0,65,0.00,,,-99.99,,2013-04-14 00:52:00,
2013-04-13 20:02:00,39.0,28.0,-100.00,East,80,6.0,10.0,65,0.00,,,-99.99,,2013-04-14 01:02:00,
2013-04-13 20:12:00,39.0,28.0,-100.00,ENE,70,8.0,11.0,65,0.00,,,-99.99,,2013-04-14 01:12:00,
2013-04-13 20:22:00,39.0,29.0,-100.00,East,80,7.0,11.0,66,0.00,,,-99.99,,2013-04-14 01:22:00,
2013-04-13 20:32:00,39.0,29.0,-100.00,ENE,75,5.0,9.0,68,0.00,,,-99.99,,2013-04-14 01:32:00,
2013-04-13 20:42:00,39.0,29.0,-100.00,ENE,75,5.0,9.0,68,0.00,,,-99.99,,2013-04-14 01:42:00,
2013-04-13 20:52:00,38.0,29.0,-100.00,East,80,7.0,11.0,68,0.00,,,-99.99,,2013-04-14 01:52:00,
2013-04-13 21:02:00,38.0,29.0,-100.00,East,80,7.0,11.0,68,0.00,,,-99.99,,2013-04-14 02:02:00,
2013-04-13 21:12:00,38.0,29.0,-100.00,ENE,70,7.0,12.0,69,0.00,,,-99.99,,2013-04-14 02:12:00,
2013-04-13 21:22:00,38.0,29.0,-100.00,ENE,65,7.0,12.0,69,0.00,,,-99.99,,2013-04-14 02:22:00,
2013-04-13 21:32:00,38.0,30.0,-100.00,ENE,60,7.0,13.0,70,0.00,,,-99.99,,2013-04-14 02:32:00,
2013-04-13 21:42:00,38.0,30.0,-100.00,ENE,60,7.0,13.0,70,0.00,,,-99.99,,2013-04-14 02:42:00,
2013-04-13 21:52:00,38.0,29.0,-100.00,East,80,9.0,12.0,70,0.00,,,-99.99,,2013-04-14 02:52:00,
2013-04-13 22:02:00,38.0,29.0,-100.00,East,80,9.0,12.0,70,0.00,,,-99.99,,2013-04-14 03:02:00,
2013-04-13 22:12:00,38.0,29.0,-100.00,East,80,9.0,15.0,70,0.00,,,-99.99,,2013-04-14 03:12:00,
2013-04-13 22:22:00,38.0,29.0,-100.00,East,80,10.0,14.0,70,0.00,,,-99.99,,2013-04-14 03:22:00,
2013-04-13 22:33:00,38.0,30.0,-100.00,East,80,9.0,14.0,72,0.00,,,-99.99,,2013-04-14 03:33:00,
2013-04-13 22:42:00,38.0,30.0,-100.00,East,80,9.0,14.0,72,0.00,,,-99.99,,2013-04-14 03:42:00,
2013-04-13 22:53:00,38.0,30.0,-100.00,East,90,11.0,16.0,73,0.00,,,-99.99,,2013-04-14 03:53:00,
2013-04-13 23:02:00,38.0,30.0,-100.00,East,90,11.0,16.0,73,0.00,,,-99.99,,2013-04-14 04:02:00,
2013-04-13 23:12:00,38.0,31.0,-100.00,ENE,75,10.0,14.0,74,0.00,,,-99.99,,2013-04-14 04:12:00,
2013-04-13 23:23:00,38.0,31.0,-100.00,ENE,75,11.0,18.0,74,0.00,,,-99.99,,2013-04-14 04:23:00,
2013-04-13 23:32:00,38.0,31.0,-100.00,East,90,10.0,16.0,76,0.00,,,-99.99,,2013-04-14 04:32:00,
2013-04-13 23:42:00,38.0,31.0,-100.00,East,90,10.0,16.0,76,0.00,,,-99.99,,2013-04-14 04:42:00,
2013-04-13 23:52:00,38.0,31.0,-100.00,ENE,75,10.0,20.0,76,0.00,,,-99.99,,2013-04-14 04:52:00,